TimeCDT,TemperatureF,Dew PointF,Humidity,Sea Level PressureIn,VisibilityMPH,Wind Direction,Wind SpeedMPH,Gust SpeedMPH,PrecipitationIn,Events,Conditions,WindDirDegrees,DateUTC
12:54 AM,53.1,51.1,93,29.92,7.0,North,4.6,-,N/A,,Clear,360,2013-09-25 05:54:00
1:54 AM,55.0,52.0,89,29.91,7.0,Calm,Calm,-,N/A,,Clear,0,2013-09-25 06:54:00
2:54 AM,54.0,52.0,93,29.91,6.0,Calm,Calm,-,N/A,,Clear,0,2013-09-25 07:54:00
3:54 AM,50.0,48.0,93,29.92,6.0,Calm,Calm,-,N/A,,Clear,0,2013-09-25 08:54:00
4:54 AM,50.0,48.9,96,29.92,4.0,North,4.6,-,N/A,,Clear,350,2013-09-25 09:54:00
5:54 AM,51.1,50.0,96,29.92,5.0,Calm,Calm,-,N/A,,Clear,0,2013-09-25 10:54:00
6:18 AM,50.0,50.0,100,29.93,1.5,Calm,Calm,-,N/A,,Partly Cloudy,0,2013-09-25 11:18:00
6:20 AM,48.2,48.2,100,29.93,0.8,Calm,Calm,-,N/A,,Mist,0,2013-09-25 11:20:00
6:30 AM,48.2,48.2,100,29.92,1.5,Calm,Calm,-,N/A,,Partly Cloudy,0,2013-09-25 11:30:00
6:42 AM,48.2,46.4,93,29.93,1.2,North,3.5,-,N/A,,Mostly Cloudy,350,2013-09-25 11:42:00
6:51 AM,48.2,48.2,100,29.93,2.0,North,3.5,-,N/A,,Partly Cloudy,350,2013-09-25 11:51:00
6:52 AM,48.2,48.2,100,29.93,3.0,North,3.5,-,N/A,,Partly Cloudy,350,2013-09-25 11:52:00
6:54 AM,48.0,46.9,96,29.92,5.0,North,3.5,-,N/A,,Partly Cloudy,350,2013-09-25 11:54:00
7:08 AM,48.2,46.4,93,29.92,1.8,North,3.5,-,N/A,,Scattered Clouds,360,2013-09-25 12:08:00
7:10 AM,48.2,46.4,93,29.92,1.0,North,3.5,-,N/A,,Mist,360,2013-09-25 12:10:00
7:14 AM,48.2,46.4,93,29.92,0.5,NNW,3.5,-,N/A,Fog,Fog,340,2013-09-25 12:14:00
7:35 AM,48.2,46.4,93,29.93,0.2,NNE,3.5,-,N/A,Fog,Fog,20,2013-09-25 12:35:00
7:44 AM,48.2,48.2,100,29.93,0.2,Calm,Calm,-,N/A,Fog,Fog,0,2013-09-25 12:44:00
7:54 AM,50.0,48.9,96,29.93,0.2,Calm,Calm,-,N/A,Fog,Fog,0,2013-09-25 12:54:00
7:57 AM,50.0,50.0,100,29.93,1.0,Calm,Calm,-,N/A,,Mist,0,2013-09-25 12:57:00
8:05 AM,51.8,50.0,94,29.93,3.0,Calm,Calm,-,N/A,,Mostly Cloudy,0,2013-09-25 13:05:00
8:18 AM,51.8,51.8,100,29.92,3.0,Calm,Calm,-,N/A,,Scattered Clouds,0,2013-09-25 13:18:00
8:54 AM,54.0,52.0,93,29.92,5.0,Calm,Calm,-,N/A,,Partly Cloudy,0,2013-09-25 13:54:00
9:54 AM,61.0,55.9,83,29.93,5.0,Calm,Calm,-,N/A,,Haze,0,2013-09-25 14:54:00
10:54 AM,68.0,57.9,70,29.91,8.0,SSE,6.9,-,N/A,,Clear,160,2013-09-25 15:54:00
11:54 AM,73.9,57.9,57,29.88,10.0,SE,12.7,20.7,N/A,,Clear,140,2013-09-25 16:54:00
12:54 PM,75.9,59.0,56,29.86,10.0,SSE,11.5,-,N/A,,Scattered Clouds,150,2013-09-25 17:54:00
1:54 PM,77.0,57.9,52,29.83,10.0,SE,17.3,-,N/A,,Clear,130,2013-09-25 18:54:00
2:54 PM,78.1,57.0,48,29.80,10.0,SE,13.8,-,N/A,,Clear,140,2013-09-25 19:54:00
3:54 PM,79.0,57.9,48,29.77,10.0,SSE,18.4,21.9,N/A,,Clear,150,2013-09-25 20:54:00
4:54 PM,79.0,57.0,47,29.76,10.0,SSE,15.0,-,N/A,,Clear,150,2013-09-25 21:54:00
5:54 PM,78.1,57.0,48,29.74,10.0,SE,15.0,-,N/A,,Clear,140,2013-09-25 22:54:00
6:54 PM,75.9,55.9,50,29.73,10.0,SE,16.1,-,N/A,,Clear,140,2013-09-25 23:54:00
7:54 PM,73.0,57.0,57,29.73,10.0,SE,15.0,-,N/A,,Clear,140,2013-09-26 00:54:00
8:54 PM,72.0,57.0,59,29.73,10.0,SE,15.0,-,N/A,,Clear,140,2013-09-26 01:54:00
9:54 PM,69.1,57.9,68,29.76,10.0,SSE,12.7,-,N/A,,Clear,150,2013-09-26 02:54:00
10:54 PM,68.0,59.0,73,29.76,10.0,SSE,16.1,-,N/A,,Clear,160,2013-09-26 03:54:00
11:54 PM,66.9,59.0,76,29.75,10.0,SSE,16.1,-,N/A,,Clear,150,2013-09-26 04:54:00